This is the latest recevied weather packets stored in our database for station/object N9CQS-15. If no packets are shown the sender has not sent any weather packets the latest 10 day(s).
| Time | Temp. | Humidity | Pressure | Rain* | Wind** | Luminosity | Snow |
|---|---|---|---|---|---|---|---|
| 1778019542 | 9.44° C | 84% | 1009.8 hPa | 0 mm | - | - | - |
| 1778018942 | 9.44° C | 85% | 1009.7 hPa | 0 mm | - | - | - |
| 1778018342 | 9.44° C | 86% | 1009.9 hPa | 0 mm | - | - | - |
| 1778017742 | 10° C | 87% | 1010 hPa | 0.25 mm | - | - | - |
| 1778017142 | 10° C | 87% | 1010 hPa | 0.25 mm | - | - | - |
| 1778016542 | 10° C | 86% | 1010.6 hPa | 0 mm | - | - | - |
| 1778015942 | 9.44° C | 87% | 1010.6 hPa | 0 mm | - | - | - |
| 1778015341 | 9.44° C | 86% | 1010.7 hPa | 0 mm | - | - | - |
| 1778014742 | 9.44° C | 84% | 1010.8 hPa | 0 mm | - | - | - |
| 1778014142 | 10° C | 84% | 1010.8 hPa | 0 mm | - | - | - |
| 1778013543 | 10° C | 86% | 1011.1 hPa | 0.25 mm | - | - | - |
| 1778012941 | 10° C | 85% | 1011.3 hPa | 0.25 mm | - | - | - |
| 1778012342 | 9.44° C | 84% | 1011.3 hPa | 0 mm | - | - | - |
| 1778011742 | 9.44° C | 83% | 1011.3 hPa | 0 mm | - | - | - |
| 1778011142 | 10° C | 83% | 1011.1 hPa | 0 mm | - | - | - |
| 1778010542 | 10° C | 87% | 1011 hPa | 0 mm | - | - | - |
| 1778009942 | 10° C | 86% | 1011.2 hPa | 0.25 mm | - | - | - |
| 1778009342 | 10.56° C | 84% | 1011.2 hPa | 0 mm | - | - | - |
| 1778008741 | 10.56° C | 84% | 1011.2 hPa | 0.25 mm | - | - | - |
| 1778008141 | 11.11° C | 82% | 1011.2 hPa | 0.25 mm | - | - | - |
| 1778007541 | 11.11° C | 81% | 1011.2 hPa | 0 mm | - | - | - |
| 1778006942 | 11.67° C | 77% | 1011.1 hPa | 0 mm | - | - | - |
| 1778006342 | 11.67° C | 74% | 1010.6 hPa | 0 mm | - | - | - |
| 1778005741 | 11.67° C | 74% | 1010.2 hPa | 0 mm | - | - | - |
| 1778005141 | 11.67° C | 75% | 1010 hPa | 0 mm | - | - | - |
* Rain latest hour (hover to see other rain measurements)
** Current wind speed in m/s (hover to see current wind gust speed)